EW6005 Weather Reports


Display with metric or nautical units.
time (UTC)temp
F
wind
direction
speed
MPH
gust
MPH
rain 1hr
in
rain 24hr
in
rain mn
in
humidity
%
barometer
mb
20260507203057 77 0 1.0 4.0 0.00 0.00 0.00 75 999.9
20260507202558 77 0 2.0 4.0 0.00 0.00 0.00 75 1000.0
20260507202059 77 0 2.0 4.0 0.00 0.00 0.00 75 1000.0
20260507201554 76 0 1.0 6.0 0.00 0.00 0.00 76 1000.1
20260507201054 76 0 1.0 6.0 0.00 0.00 0.00 76 1000.1
20260507200550 76 0 1.0 3.0 0.00 0.00 0.00 77 1000.1
20260507200049 76 0 1.0 6.0 0.00 0.00 0.00 76 1000.1
20260507195549 76 0 1.0 6.0 0.00 0.00 0.00 75 1000.2
20260507195050 76 0 2.0 4.0 0.00 0.00 0.00 76 1000.4
20260507194816 76 23 2.0 4.0 0.00 0.00 0.00 75 1000.7
20260507194049 76 313 2.0 5.0 0.00 0.00 0.00 76 1000.8
20260507193550 76 10 1.0 5.0 0.00 0.00 0.00 76 1000.4
20260507193049 76 319 1.0 4.0 0.00 0.00 0.00 76 1000.4
20260507192548 76 134 2.0 5.0 0.00 0.00 0.00 76 1000.4
20260507192045 76 331 1.0 5.0 0.00 0.00 0.00 78 1000.5
20260507191807 76 327 1.0 8.0 0.00 0.00 0.00 77 1000.6
20260507191040 75 344 1.0 8.0 0.00 0.00 0.00 78 1001.0
20260507190540 75 312 1.0 4.0 0.00 0.00 0.00 79 1001.1
20260507190040 74 51 1.0 2.0 0.00 0.00 0.00 79 1001.3
20260507185803 74 314 1.0 5.0 0.00 0.00 0.00 79 1001.4
20260507185037 73 338 1.0 5.0 0.00 0.00 0.00 79 1001.4
20260507184754 73 321 2.0 4.0 0.00 0.00 0.00 79 1001.4
20260507184035 73 22 2.0 5.0 0.00 0.00 0.00 79 1001.3
20260507183758 73 30 2.0 5.0 0.00 0.00 0.00 80 1001.5
20260507183035 73 349 2.0 10.0 0.00 0.00 0.00 80 1001.5
20260507182531 73 315 2.0 10.0 0.00 0.00 0.00 79 1001.5
20260507182030 72 49 1.0 5.0 0.00 0.00 0.00 80 1001.5
20260507181530 72 288 2.0 5.0 0.00 0.00 0.00 82 1001.6
20260507181248 72 30 1.0 5.0 0.00 0.00 0.00 81 1001.6
20260507180527 71 44 1.0 4.0 0.00 0.00 0.00 81 1001.8
20260507180245 71 0 1.0 4.0 0.00 0.00 0.00 81 1001.9
20260507175523 71 53 1.0 3.0 0.00 0.00 0.00 82 1002.0
20260507175024 70 82 1.0 3.0 0.00 0.00 0.00 83 1001.9
20260507174524 70 336 1.0 3.0 0.00 0.00 0.00 82 1002.0
20260507174021 70 349 1.0 3.0 0.00 0.00 0.00 83 1002.2
20260507173522 69 349 1.0 3.0 0.00 0.00 0.00 83 1002.5
20260507173242 69 349 1.0 4.0 0.00 0.00 0.00 82 1002.5
20260507172518 69 38 1.0 4.0 0.00 0.00 0.00 82 1002.5
20260507172016 70 345 1.0 3.0 0.00 0.00 0.00 83 1002.5
20260507171517 69 306 2.0 5.0 0.00 0.00 0.00 83 1002.6
20260507171015 69 349 1.0 5.0 0.00 0.00 0.00 82 1002.5
20260507170511 69 335 1.0 4.0 0.00 0.00 0.00 84 1002.3
20260507170012 69 295 2.0 4.0 0.00 0.00 0.00 83 1002.2
20260507165507 69 331 1.0 4.0 0.00 0.00 0.00 83 1002.4
20260507165007 69 9 1.0 4.0 0.00 0.00 0.00 84 1002.3
20260507164507 69 14 1.0 4.0 0.00 0.00 0.00 85 1002.3
20260507164003 68 315 1.0 3.0 0.00 0.00 0.00 85 1002.2
20260507163501 68 336 1.0 3.0 0.00 0.00 0.00 85 1002.1
20260507163001 67 44 1.0 4.0 0.00 0.00 0.00 85 1002.0
20260507162946 67 329 2.0 4.0 0.00 0.00 0.00 85 1001.9
20260507162219 67 30 2.0 5.0 0.00 0.00 0.00 84 1001.8
20260507161459 67 292 1.0 5.0 0.00 0.00 0.00 85 1001.9
20260507160959 66 60 1.0 3.0 0.00 0.00 0.00 86 1001.9
20260507160501 66 56 1.0 4.0 0.00 0.00 0.00 86 1001.8
20260507155959 66 10 1.0 4.0 0.00 0.00 0.00 87 1001.8
20260507155456 65 154 1.0 5.0 0.00 0.00 0.00 87 1001.7
20260507154957 65 53 1.0 5.0 0.00 0.00 0.00 87 1001.5
20260507154723 65 57 1.0 4.0 0.00 0.00 0.00 87 1001.6
20260507154213 64 350 2.0 4.0 0.00 0.00 0.00 87 1001.9
20260507153456 64 0 2.0 6.0 0.00 0.00 0.00 87 1002.0
20260507153444 64 0 2.0 6.0 0.00 0.00 0.00 87 1002.1
20260507152455 64 0 2.0 5.0 0.00 0.00 0.00 87 1002.2
20260507151955 64 0 2.0 4.0 0.00 0.00 0.00 87 1002.1
20260507151718 64 0 2.0 8.0 0.00 0.00 0.00 88 1002.0
20260507151212 64 0 2.0 8.0 0.00 0.00 0.00 87 1002.0
20260507150455 64 0 2.0 4.0 0.00 0.00 0.00 88 1001.7
20260507145956 63 0 2.0 5.0 0.00 0.00 0.00 88 1001.6
20260507145455 63 0 2.0 5.0 0.00 0.00 0.00 87 1001.8
20260507144955 64 0 2.0 4.0 0.00 0.00 0.00 88 1002.0
20260507144727 64 0 2.0 5.0 0.00 0.00 0.00 88 1002.0
20260507143955 63 0 2.0 9.0 0.00 0.00 0.00 89 1001.9
20260507143455 63 0 2.0 9.0 0.00 0.00 0.00 90 1001.9
20260507142956 63 0 2.0 4.0 0.00 0.00 0.00 90 1002.0
20260507142720 63 0 2.0 4.0 0.00 0.00 0.00 89 1002.0
20260507141955 63 0 2.0 5.0 0.00 0.00 0.00 90 1001.9
20260507141455 63 0 2.0 10.0 0.00 0.00 0.00 91 1001.9
20260507141216 63 0 2.0 10.0 0.00 0.00 0.00 90 1002.0
20260507140455 63 0 2.0 4.0 0.00 0.00 0.00 90 1002.0
20260507140438 63 0 2.0 5.0 0.00 0.00 0.00 91 1002.0
20260507135456 63 0 1.0 5.0 0.00 0.00 0.00 91 1002.0
20260507135216 63 0 1.0 4.0 0.00 0.00 0.00 90 1002.1
20260507134452 63 0 0.0 2.0 0.00 0.00 0.00 91 1002.2
20260507133952 63 0 0.0 4.0 0.00 0.00 0.00 91 1002.2
20260507133451 63 0 1.0 4.0 0.00 0.00 0.00 91 1002.2
20260507133217 63 0 1.0 4.0 0.00 0.00 0.00 90 1002.0
20260507132451 63 20 1.0 4.0 0.00 0.00 0.00 90 1002.0
20260507131952 63 344 0.0 2.0 0.00 0.00 0.00 90 1002.0
20260507131928 63 27 1.0 2.0 0.00 0.00 0.00 90 1002.1
20260507130951 63 342 1.0 6.0 0.00 0.00 0.00 90 1002.2
20260507130451 63 11 1.0 6.0 0.00 0.00 0.00 90 1002.3
20260507130207 63 17 1.0 3.0 0.00 0.00 0.00 90 1002.0
20260507125708 63 292 1.0 3.0 0.00 0.00 0.00 90 1002.2
20260507124948 63 309 1.0 3.0 0.00 0.00 0.00 90 1002.3
20260507124447 63 0 1.0 4.0 0.00 0.00 0.00 90 1002.1
20260507123946 63 11 1.0 4.0 0.00 0.00 0.00 90 1002.2
20260507123709 64 0 0.0 1.0 0.00 0.00 0.00 90 1002.0
20260507122946 64 0 0.0 1.0 0.00 0.00 0.00 90 1001.8
20260507122447 64 35 0.0 2.0 0.00 0.00 0.00 90 1001.5
20260507121948 64 31 1.0 6.0 0.00 0.00 0.00 90 1001.1
20260507121443 64 313 1.0 6.0 0.00 0.00 0.00 90 1000.8
20260507120943 64 14 1.0 5.0 0.00 0.00 0.00 90 1000.7
20260507120444 64 350 1.0 5.0 0.00 0.00 0.00 90 1001.0
20260507115944 64 350 1.0 3.0 0.00 0.00 0.00 90 1000.7
20260507115444 64 348 1.0 4.0 0.00 0.00 0.00 90 1000.5
20260507114943 64 17 1.0 4.0 0.00 0.00 0.00 90 1000.5
20260507114443 64 5 0.0 3.0 0.00 0.00 0.00 90 1000.8
20260507113943 64 5 0.0 3.0 0.00 0.00 0.00 90 1000.6
20260507113444 64 26 0.0 0.0 0.00 0.00 0.00 90 1000.6
20260507112939 64 26 0.0 2.0 0.00 0.00 0.00 90 1000.7
20260507112439 64 345 1.0 4.0 0.00 0.00 0.00 90 1000.4
20260507111938 64 14 1.0 5.0 0.00 0.00 0.00 90 1000.2
20260507111439 64 345 1.0 5.0 0.00 0.00 0.00 90 1000.6
20260507111200 64 347 1.0 3.0 0.00 0.00 0.00 90 1000.2
20260507110440 64 303 1.0 3.0 0.00 0.00 0.00 90 1000.3
20260507110156 64 350 1.0 3.0 0.00 0.00 0.00 90 1000.2
20260507105441 65 9 1.0 4.0 0.00 0.00 0.00 90 1000.1
20260507104940 65 14 1.0 4.0 0.00 0.00 0.00 90 1000.0
20260507104435 65 327 1.0 3.0 0.00 0.00 0.00 90 999.6
20260507103926 65 5 1.0 3.0 0.00 0.00 0.00 90 999.8
20260507103427 65 301 0.0 2.0 0.00 0.00 0.00 90 1000.0
20260507102929 65 345 0.0 2.0 0.00 0.00 0.00 90 999.9
20260507102428 65 290 1.0 2.0 0.00 0.00 0.00 91 999.8
20260507101928 65 350 1.0 2.0 0.00 0.00 0.00 91 999.5
20260507101428 65 327 0.0 2.0 0.00 0.00 0.00 91 999.6
20260507100928 65 253 0.0 1.0 0.00 0.00 0.00 91 999.5
20260507100429 65 253 1.0 2.0 0.00 0.00 0.00 91 999.5
20260507095927 65 294 1.0 3.0 0.00 0.00 0.00 91 999.1
20260507095424 65 349 1.0 4.0 0.00 0.00 0.00 91 999.4
20260507094925 65 310 1.0 4.0 0.00 0.00 0.00 91 999.0
20260507094423 65 350 1.0 5.0 0.00 0.00 0.00 91 999.4
20260507093924 65 278 1.0 5.0 0.00 0.00 0.00 91 998.9
20260507093422 65 46 0.0 2.0 0.00 0.00 0.00 91 998.7
20260507092921 65 54 0.0 3.0 0.00 0.00 0.00 91 998.9
20260507092421 65 163 1.0 3.0 0.00 0.00 0.00 91 999.0
20260507091920 65 5 1.0 3.0 0.00 0.00 0.00 91 998.8
20260507091421 65 328 1.0 4.0 0.00 0.00 0.00 91 999.0
20260507090918 65 311 1.0 4.0 0.00 0.00 0.00 91 999.0
20260507090418 65 329 1.0 3.0 0.00 0.00 0.00 91 998.9
20260507085920 65 15 1.0 3.0 0.00 0.00 0.00 91 998.9
20260507085420 65 345 1.0 4.0 0.00 0.00 0.00 91 999.1
20260507084918 65 5 0.0 4.0 0.00 0.00 0.00 91 999.1
20260507084420 65 350 1.0 3.0 0.00 0.00 0.00 91 999.0
20260507083915 65 335 1.0 4.0 0.00 0.00 0.00 91 998.8
20260507083410 65 5 1.0 4.0 0.00 0.00 0.00 91 998.5
20260507082910 65 5 1.0 3.0 0.00 0.00 0.00 91 998.9
20260507082408 65 302 1.0 4.0 0.00 0.00 0.00 91 999.2
20260507081907 65 16 1.0 4.0 0.00 0.00 0.00 91 998.7
20260507081628 65 38 1.0 6.0 0.00 0.00 0.00 91 998.6
20260507080903 65 318 1.0 6.0 0.00 0.00 0.00 91 999.0
20260507080402 65 50 1.0 4.0 0.00 0.00 0.00 91 999.3
20260507075901 66 281 0.0 4.0 0.00 0.00 0.00 91 999.2
20260507075402 66 24 0.0 3.0 0.00 0.00 0.00 91 998.9
20260507074858 65 24 1.0 3.0 0.00 0.00 0.00 90 999.0
20260507074357 65 0 1.0 3.0 0.00 0.00 0.00 90 999.2
20260507074341 65 14 1.0 3.0 0.00 0.00 0.00 90 999.2
20260507073352 65 341 1.0 3.0 0.00 0.00 0.00 90 999.5
20260507072849 66 315 1.0 4.0 0.00 0.00 0.00 90 999.1
20260507072349 66 331 1.0 4.0 0.00 0.00 0.00 90 999.2
20260507071849 66 5 1.0 6.0 0.00 0.00 0.00 90 999.1
20260507071347 66 344 1.0 6.0 0.00 0.00 0.00 89 999.1
20260507071332 66 0 1.0 3.0 0.00 0.00 0.00 89 999.3
20260507070346 66 323 1.0 2.0 0.00 0.00 0.00 89 999.6
20260507065846 66 344 1.0 4.0 0.00 0.00 0.00 89 999.6
20260507065346 67 303 1.0 4.0 0.00 0.00 0.00 89 999.7
20260507064842 67 16 1.0 3.0 0.00 0.00 0.00 88 999.5
20260507064342 67 57 1.0 6.0 0.00 0.00 0.00 88 999.6
20260507063842 67 311 1.0 6.0 0.00 0.00 0.00 88 999.5
20260507063559 67 10 1.0 3.0 0.00 0.00 0.00 88 999.5
20260507062843 67 11 1.0 2.0 0.00 0.00 0.00 88 999.8
20260507062342 67 0 1.0 3.0 0.00 0.00 0.00 88 999.2
20260507061842 67 0 1.0 3.0 0.00 0.00 0.00 87 999.4
20260507061342 67 17 1.0 4.0 0.00 0.00 0.00 87 999.6
20260507060843 67 344 1.0 4.0 0.00 0.00 0.00 87 999.6
20260507060342 67 0 1.0 8.0 0.00 0.00 0.00 87 999.3
20260507055842 67 344 1.0 8.0 0.00 0.00 0.00 87 999.0
20260507055342 67 9 1.0 2.0 0.00 0.00 0.00 87 999.1
20260507054842 67 9 1.0 4.0 0.00 0.00 0.00 87 999.3
20260507054343 67 342 1.0 4.0 0.00 0.00 0.00 87 999.5
20260507053843 67 20 1.0 3.0 0.00 0.00 0.00 87 999.3
20260507053343 67 9 1.0 3.0 0.00 0.00 0.00 87 999.4
20260507052842 67 337 1.0 3.0 0.00 0.00 0.00 87 999.4
20260507052342 67 17 1.0 6.0 0.00 0.00 0.00 86 999.2
20260507052104 67 26 1.0 6.0 0.00 0.00 0.00 86 999.3
20260507051344 67 304 1.0 5.0 0.00 0.00 0.00 87 999.2
20260507050840 67 23 1.0 4.0 0.00 0.00 0.00 86 999.2
20260507050829 67 287 1.0 4.0 0.00 0.00 0.00 86 999.2
20260507045604 68 15 1.0 4.0 0.00 0.00 0.00 86 999.1
20260507044839 68 300 1.0 4.0 0.00 0.00 0.00 86 999.1
20260507044340 68 309 1.0 4.0 0.00 0.00 0.00 86 999.1
20260507043839 68 37 1.0 3.0 0.00 0.00 0.00 85 999.1
20260507043338 68 320 1.0 3.0 0.00 0.00 0.00 85 999.1
20260507042839 69 340 1.0 4.0 0.00 0.00 0.00 86 999.0
20260507042339 69 327 1.0 4.0 0.00 0.00 0.00 86 999.0
20260507041838 69 9 1.0 4.0 0.00 0.00 0.00 86 999.0
20260507041339 69 345 1.0 7.0 0.00 0.00 0.00 86 998.9
20260507040840 69 32 1.0 7.0 0.00 0.00 0.00 86 999.0
20260507040339 69 9 1.0 3.0 0.00 0.00 0.00 86 999.0
20260507040316 69 18 1.0 2.0 0.00 0.00 0.00 86 998.9
20260507035338 69 327 1.0 3.0 0.00 0.00 0.00 85 999.1
20260507034839 69 12 1.0 4.0 0.00 0.00 0.00 86 999.1
20260507034554 69 344 1.0 4.0 0.00 0.00 0.00 85 999.1
20260507033839 69 295 1.0 4.0 0.00 0.00 0.00 85 999.1
20260507033603 70 258 1.0 4.0 0.00 0.00 0.00 86 999.1
20260507032838 70 345 0.0 2.0 0.00 0.00 0.00 86 998.7
20260507032608 70 0 1.0 3.0 0.00 0.00 0.00 85 998.5
20260507031839 70 0 1.0 3.0 0.00 0.00 0.00 85 998.5
20260507031338 70 309 1.0 3.0 0.00 0.00 0.00 85 998.6
20260507030839 70 345 1.0 3.0 0.00 0.00 0.00 85 998.4
20260507030336 70 339 1.0 4.0 0.00 0.00 0.00 86 998.2
20260507025837 70 345 1.0 4.0 0.00 0.00 0.00 86 998.0
20260507025551 70 13 1.0 2.0 0.00 0.00 0.00 86 997.8
20260507024835 71 332 1.0 2.0 0.00 0.00 0.00 86 997.7
20260507024333 71 341 0.0 2.0 0.00 0.00 0.00 86 997.7
20260507023832 71 280 0.0 2.0 0.00 0.00 0.00 86 997.5
20260507023332 71 326 0.0 3.0 0.00 0.00 0.00 85 997.5
20260507022829 71 16 1.0 3.0 0.00 0.00 0.00 86 997.3
20260507022819 71 0 1.0 4.0 0.00 0.00 0.00 85 997.2
20260507021826 71 333 1.0 4.0 0.00 0.00 0.00 85 997.0
20260507021325 71 42 1.0 3.0 0.00 0.00 0.00 85 997.0
20260507020825 71 322 1.0 2.0 0.00 0.00 0.00 85 997.0
20260507020324 72 317 1.0 2.0 0.00 0.00 0.00 86 996.8
20260507015823 72 0 1.0 2.0 0.00 0.00 0.00 86 996.8
20260507015320 72 16 1.0 2.0 0.00 0.00 0.00 85 996.7
20260507014821 72 17 1.0 2.0 0.00 0.00 0.00 85 996.6
20260507014318 72 0 0.0 2.0 0.00 0.00 0.00 85 996.6
20260507014037 72 0 0.0 3.0 0.00 0.00 0.00 85 996.5
20260507013318 73 0 1.0 3.0 0.00 0.00 0.00 85 996.3
20260507012815 73 0 1.0 3.0 0.00 0.00 0.00 85 996.2
20260507012532 73 0 1.0 3.0 0.00 0.00 0.00 84 996.3
20260507011810 73 0 1.0 3.0 0.00 0.00 0.00 85 996.1
20260507011311 73 0 1.0 3.0 0.00 0.00 0.00 85 996.1
20260507010808 74 0 1.0 3.0 0.00 0.00 0.00 84 995.9
20260507010308 74 0 1.0 3.0 0.00 0.00 0.00 85 996.0
20260507005809 74 0 0.0 3.0 0.00 0.00 0.00 85 996.0
20260507005306 74 0 0.0 1.0 0.00 0.00 0.00 85 995.9
20260507004807 75 0 0.0 3.0 0.00 0.00 0.00 85 995.8
20260507004307 75 0 1.0 3.0 0.00 0.00 0.00 85 995.7
20260507003806 75 0 1.0 3.0 0.00 0.00 0.00 85 995.6
20260507003758 75 0 1.0 3.0 0.00 0.00 0.00 85 995.5
20260507002803 76 0 1.0 3.0 0.00 0.00 0.00 86 995.4
20260507002305 76 0 1.0 2.0 0.00 0.00 0.00 85 995.3
20260507001801 76 0 1.0 4.0 0.00 0.00 0.00 85 995.2
20260507001258 76 0 1.0 4.0 0.00 0.00 0.00 85 995.2
20260507000758 76 0 0.0 2.0 0.00 0.00 0.00 85 995.2
20260507000300 76 0 1.0 2.0 0.00 0.00 0.00 85 995.1
20260506235757 77 0 1.0 3.0 0.00 0.00 0.00 84 995.2
20260506235526 77 0 2.0 4.0 0.00 0.00 0.00 84 995.2
20260506234755 77 0 2.0 4.0 0.00 0.00 0.00 83 995.1
20260506234256 78 0 1.0 4.0 0.00 0.00 0.00 83 995.1
20260506233756 78 0 2.0 4.0 0.00 0.00 0.00 83 995.1
20260506233255 79 0 2.0 4.0 0.00 0.00 0.00 82 995.1
20260506232757 80 0 2.0 5.0 0.00 0.00 0.00 81 994.9
20260506232255 81 0 2.0 5.0 0.00 0.00 0.00 80 994.8
20260506231756 83 318 1.0 4.0 0.00 0.00 0.00 81 994.6
20260506231254 84 0 0.0 4.0 0.00 0.00 0.00 86 994.4
20260506230755 84 0 0.0 0.0 0.00 0.00 0.00 87 994.1
20260506230256 84 0 0.0 0.0 0.00 0.00 0.00 86 994.1
20260506230016 84 0 0.0 0.0 0.00 0.00 0.00 86 994.2
20260506225512 84 0 0.0 0.0 0.00 0.00 0.00 85 994.2
20260506224755 85 0 0.0 0.0 0.00 0.00 0.00 86 994.2
20260506224254 85 0 0.0 0.0 0.00 0.00 0.00 85 994.1
20260506223754 85 0 0.0 0.0 0.00 0.00 0.00 85 994.1
20260506223743 85 0 0.0 0.0 0.00 0.00 0.00 85 994.0
20260506222754 85 0 0.0 0.0 0.00 0.00 0.00 85 994.0
20260506222254 85 0 0.0 0.0 0.00 0.00 0.00 85 993.9
20260506221755 85 0 0.0 0.0 0.00 0.00 0.00 85 993.9
20260506221254 85 0 0.0 0.0 0.00 0.00 0.00 85 993.9
20260506220754 85 0 0.0 1.0 0.00 0.00 0.00 85 993.8
20260506220254 85 0 0.0 1.0 0.00 0.00 0.00 85 993.9
20260506215755 85 0 0.0 1.0 0.00 0.00 0.00 85 993.9
20260506215254 85 0 0.0 1.0 0.00 0.00 0.00 84 993.9
20260506214754 85 0 0.0 0.0 0.00 0.00 0.00 84 993.9
20260506214253 85 0 0.0 1.0 0.00 0.00 0.00 84 994.0
20260506213754 85 0 0.0 1.0 0.00 0.00 0.00 84 994.0
20260506213251 85 0 0.0 2.0 0.00 0.00 0.00 84 994.0
20260506212750 85 0 0.0 2.0 0.00 0.00 0.00 84 994.0
20260506212250 85 0 0.0 0.0 0.00 0.00 0.00 84 994.0
20260506211751 85 0 0.0 2.0 0.00 0.00 0.00 84 994.0
20260506211250 85 0 0.0 2.0 0.00 0.00 0.00 84 994.0
20260506210751 85 0 0.0 1.0 0.00 0.00 0.00 85 994.0
20260506210514 85 0 0.0 2.0 0.00 0.00 0.00 85 994.0
20260506205752 85 0 1.0 4.0 0.00 0.00 0.00 85 994.2
20260506205251 85 0 1.0 4.0 0.00 0.00 0.00 85 994.4
20260506204750 84 0 0.0 3.0 0.00 0.00 0.00 85 994.3
20260506204250 84 0 0.0 1.0 0.00 0.00 0.00 86 994.2
20260506203751 84 0 0.0 0.0 0.00 0.00 0.00 86 994.3
20260506203250 84 0 0.0 0.0 0.00 0.00 0.00 87 994.3